Aérodrome :
LOGIN :

S'inscrire | Disclaimer

   EN    FR    IT 

 










Légende :    VFR   VFR Marginal   IFR   IFR Intensif   IFR Très Intensif
Visi : 
Plafond : 
>= 8 km
>= 3000ft
5 à 8 km
1000 à 3000 ft
1500m à 5 km
500 à 1000 ft
800 à 1500m
200 à 500 ft
< 800m
< 200 ft
Symboles :   Orages  Brouillard  Fortes neiges  Fortes précipitations  Vent > 20 kt
SIGMETs :   Divers  Orages  Givrage  Turbulence  Onde Orograph.  Cendres Volcan.







- Altitude de l'aérodrome : 313 ft
- Code IATA : LEH
- Voir les cartes d'approche


LFOH - Le Havre Octeville

DERNIER METAR :
  • 241700Z AUTO 35010KT 9999 SCT024 18/13 Q1025 NOSIG

METARs EXPIRÉS :
  • 241630Z AUTO 35009KT 9999 FEW024 18/14 Q1025 NOSIG
  • 241600Z AUTO 34008KT CAVOK 18/14 Q1026 NOSIG
  • 241530Z AUTO 34008KT 310V020 9999 FEW027 18/14 Q1026 NOSIG
  • 241500Z AUTO 35009KT 320V020 9999 4200 FEW026 18/14 Q1026 NOSIG
  • 241430Z AUTO 34007KT 310V010 9999 SCT027 18/15 Q1026 NOSIG

TAF TAF LFOH
Valide du 24 à 12h jusqu'au 25 à 12h UTC


241100Z 2412/2512 35005KT 9999 BKN005 BKN020
BECMG 2413/2416 NSC
TEMPO 2502/2505 4000 BR
ATIS : +33 2 35 54 64 93
Pas de NOTAMs connus pour ce terrain.



MET'MAP, la Météo Aéronautique d'un coup d'oeil ! - Copyright ORBIFLY Décembre 2007 - Disclaimer

ORBIFLY MET'MAP TEAM :

Programmation & Développement : Alexandra Zaïnal
Conception & Développement : Baudouin d'Aumeries
Co-Programmation & Développement : Marc-Olivier Méhu
Soutien technique & logistique : Manuel Goepfert

Contact : metmap@orbifly.com




SOURCES & CREDITS :

   NOAA